<?xml version="1.0" encoding="UTF-8" standalone="no" ?>
<gpx xmlns="http://www.topografix.com/GPX/1/1" xmlns:xsi="http://www.w3.org/2001/XMLSchema-instance" xsi:schemaLocation="http://www.topografix.com/GPX/1/1 http://www.topografix.com/GPX/1/1/gpx.xsd" version="1.1" creator="VisuGPX - https://www.visugpx.com">
  <metadata>
    <name>FoussayPaire_Autour_19-22km</name>
    <desc><![CDATA[gnerando idor;8986892_8986940_8986962_9129062_9131846]]></desc>
  </metadata>
  <trk>
    <name><![CDATA[FoussaisP_NordSud_21.9km-8986892]]></name>
    <extensions>
      <line xmlns="http://www.topografix.com/GPX/gpx_style/0/2">
        <color>0000FF</color>
        <width>4</width>
      </line>
    </extensions>
    <trkseg>
      <trkpt lat="46.52854" lon="-0.68194">
        <ele>81</ele>
        <time>2023-11-01T17:32:50Z</time>
      </trkpt>
      <trkpt lat="46.53102" lon="-0.68206">
        <ele>83</ele>
        <time>2023-11-01T17:38:21Z</time>
      </trkpt>
      <trkpt lat="46.53301" lon="-0.68771">
        <ele>96</ele>
        <time>2023-11-01T17:48:04Z</time>
      </trkpt>
      <trkpt lat="46.53241" lon="-0.68822">
        <ele>96</ele>
        <time>2023-11-01T17:49:37Z</time>
      </trkpt>
      <trkpt lat="46.53306" lon="-0.69211">
        <ele>92</ele>
        <time>2023-11-01T17:55:44Z</time>
      </trkpt>
      <trkpt lat="46.53475" lon="-0.69132">
        <ele>91</ele>
        <time>2023-11-01T17:59:41Z</time>
      </trkpt>
      <trkpt lat="46.53574" lon="-0.69377">
        <ele>88</ele>
        <time>2023-11-01T18:04:02Z</time>
      </trkpt>
      <trkpt lat="46.53653" lon="-0.69478">
        <ele>92</ele>
        <time>2023-11-01T18:06:22Z</time>
      </trkpt>
      <trkpt lat="46.53753" lon="-0.69825">
        <ele>85</ele>
        <time>2023-11-01T18:12:08Z</time>
      </trkpt>
      <trkpt lat="46.53847" lon="-0.69717">
        <ele>86</ele>
        <time>2023-11-01T18:14:47Z</time>
      </trkpt>
      <trkpt lat="46.53922" lon="-0.69868">
        <ele>81</ele>
        <time>2023-11-01T18:17:38Z</time>
      </trkpt>
      <trkpt lat="46.53976" lon="-0.69854">
        <ele>82</ele>
        <time>2023-11-01T18:18:52Z</time>
      </trkpt>
      <trkpt lat="46.54165" lon="-0.69984">
        <ele>88</ele>
        <time>2023-11-01T18:23:31Z</time>
      </trkpt>
      <trkpt lat="46.54314" lon="-0.69962">
        <ele>92</ele>
        <time>2023-11-01T18:26:51Z</time>
      </trkpt>
      <trkpt lat="46.54358" lon="-0.70056">
        <ele>93</ele>
        <time>2023-11-01T18:28:35Z</time>
      </trkpt>
      <trkpt lat="46.54403" lon="-0.70027">
        <ele>91</ele>
        <time>2023-11-01T18:29:41Z</time>
      </trkpt>
      <trkpt lat="46.54433" lon="-0.70142">
        <ele>90</ele>
        <time>2023-11-01T18:31:33Z</time>
      </trkpt>
      <trkpt lat="46.54547" lon="-0.70092">
        <ele>90</ele>
        <time>2023-11-01T18:34:12Z</time>
      </trkpt>
      <trkpt lat="46.5484" lon="-0.69774">
        <ele>96</ele>
        <time>2023-11-01T18:42:20Z</time>
      </trkpt>
      <trkpt lat="46.54969" lon="-0.69449">
        <ele>101</ele>
        <time>2023-11-01T18:48:05Z</time>
      </trkpt>
      <trkpt lat="46.55143" lon="-0.69471">
        <ele>102</ele>
        <time>2023-11-01T18:51:58Z</time>
      </trkpt>
      <trkpt lat="46.55282" lon="-0.69565">
        <ele>103</ele>
        <time>2023-11-01T18:55:22Z</time>
      </trkpt>
      <trkpt lat="46.55366" lon="-0.69312">
        <ele>106</ele>
        <time>2023-11-01T18:59:40Z</time>
      </trkpt>
      <trkpt lat="46.55366" lon="-0.69182">
        <ele>106</ele>
        <time>2023-11-01T19:01:39Z</time>
      </trkpt>
      <trkpt lat="46.5557" lon="-0.6893">
        <ele>109</ele>
        <time>2023-11-01T19:07:37Z</time>
      </trkpt>
      <trkpt lat="46.55694" lon="-0.69002">
        <ele>106</ele>
        <time>2023-11-01T19:10:35Z</time>
      </trkpt>
      <trkpt lat="46.55669" lon="-0.6924">
        <ele>101</ele>
        <time>2023-11-01T19:14:16Z</time>
      </trkpt>
      <trkpt lat="46.55723" lon="-0.69536">
        <ele>113</ele>
        <time>2023-11-01T19:18:57Z</time>
      </trkpt>
      <trkpt lat="46.55644" lon="-0.69601">
        <ele>108</ele>
        <time>2023-11-01T19:20:58Z</time>
      </trkpt>
      <trkpt lat="46.55589" lon="-0.70157">
        <ele>107</ele>
        <time>2023-11-01T19:29:33Z</time>
      </trkpt>
      <trkpt lat="46.5549" lon="-0.70496">
        <ele>103</ele>
        <time>2023-11-01T19:35:11Z</time>
      </trkpt>
      <trkpt lat="46.55247" lon="-0.70741">
        <ele>94</ele>
        <time>2023-11-01T19:41:46Z</time>
      </trkpt>
      <trkpt lat="46.55197" lon="-0.70684">
        <ele>93</ele>
        <time>2023-11-01T19:43:11Z</time>
      </trkpt>
      <trkpt lat="46.55152" lon="-0.70721">
        <ele>91</ele>
        <time>2023-11-01T19:44:20Z</time>
      </trkpt>
      <trkpt lat="46.5512" lon="-0.70679">
        <ele>93</ele>
        <time>2023-11-01T19:45:17Z</time>
      </trkpt>
      <trkpt lat="46.55019" lon="-0.70885">
        <ele>88</ele>
        <time>2023-11-01T19:49:09Z</time>
      </trkpt>
      <trkpt lat="46.5483" lon="-0.7091">
        <ele>89</ele>
        <time>2023-11-01T19:53:23Z</time>
      </trkpt>
      <trkpt lat="46.54626" lon="-0.70964">
        <ele>90</ele>
        <time>2023-11-01T19:57:59Z</time>
      </trkpt>
      <trkpt lat="46.5455" lon="-0.71047">
        <ele>90</ele>
        <time>2023-11-01T20:00:06Z</time>
      </trkpt>
      <trkpt lat="46.5447" lon="-0.70877">
        <ele>92</ele>
        <time>2023-11-01T20:03:15Z</time>
      </trkpt>
      <trkpt lat="46.54428" lon="-0.70921">
        <ele>91</ele>
        <time>2023-11-01T20:04:24Z</time>
      </trkpt>
      <trkpt lat="46.54334" lon="-0.70816">
        <ele>88</ele>
        <time>2023-11-01T20:07:02Z</time>
      </trkpt>
      <trkpt lat="46.54262" lon="-0.70524">
        <ele>92</ele>
        <time>2023-11-01T20:11:47Z</time>
      </trkpt>
      <trkpt lat="46.5403" lon="-0.70589">
        <ele>89</ele>
        <time>2023-11-01T20:17:02Z</time>
      </trkpt>
      <trkpt lat="46.5392" lon="-0.70567">
        <ele>88</ele>
        <time>2023-11-01T20:19:31Z</time>
      </trkpt>
      <trkpt lat="46.53782" lon="-0.70657">
        <ele>86</ele>
        <time>2023-11-01T20:22:52Z</time>
      </trkpt>
      <trkpt lat="46.53731" lon="-0.70722">
        <ele>84</ele>
        <time>2023-11-01T20:24:23Z</time>
      </trkpt>
      <trkpt lat="46.53669" lon="-0.70777">
        <ele>80</ele>
        <time>2023-11-01T20:26:00Z</time>
      </trkpt>
      <trkpt lat="46.53593" lon="-0.70726">
        <ele>81</ele>
        <time>2023-11-01T20:27:52Z</time>
      </trkpt>
      <trkpt lat="46.5356" lon="-0.70623">
        <ele>82</ele>
        <time>2023-11-01T20:29:36Z</time>
      </trkpt>
      <trkpt lat="46.53318" lon="-0.70447">
        <ele>73</ele>
        <time>2023-11-01T20:35:37Z</time>
      </trkpt>
      <trkpt lat="46.5328" lon="-0.7025">
        <ele>75</ele>
        <time>2023-11-01T20:38:45Z</time>
      </trkpt>
      <trkpt lat="46.53153" lon="-0.70232">
        <ele>77</ele>
        <time>2023-11-01T20:41:35Z</time>
      </trkpt>
      <trkpt lat="46.53114" lon="-0.70168">
        <ele>79</ele>
        <time>2023-11-01T20:42:54Z</time>
      </trkpt>
      <trkpt lat="46.53017" lon="-0.70237">
        <ele>83</ele>
        <time>2023-11-01T20:45:18Z</time>
      </trkpt>
      <trkpt lat="46.52896" lon="-0.70275">
        <ele>87</ele>
        <time>2023-11-01T20:48:03Z</time>
      </trkpt>
      <trkpt lat="46.52751" lon="-0.69773">
        <ele>89</ele>
        <time>2023-11-01T20:56:23Z</time>
      </trkpt>
      <trkpt lat="46.52778" lon="-0.697">
        <ele>89</ele>
        <time>2023-11-01T20:57:39Z</time>
      </trkpt>
      <trkpt lat="46.52877" lon="-0.69686">
        <ele>90</ele>
        <time>2023-11-01T20:59:52Z</time>
      </trkpt>
      <trkpt lat="46.529" lon="-0.69578">
        <ele>89</ele>
        <time>2023-11-01T21:01:35Z</time>
      </trkpt>
      <trkpt lat="46.52939" lon="-0.69506">
        <ele>90</ele>
        <time>2023-11-01T21:03:00Z</time>
      </trkpt>
      <trkpt lat="46.52967" lon="-0.69273">
        <ele>91</ele>
        <time>2023-11-01T21:06:37Z</time>
      </trkpt>
      <trkpt lat="46.52869" lon="-0.68831">
        <ele>92</ele>
        <time>2023-11-01T21:13:43Z</time>
      </trkpt>
      <trkpt lat="46.52876" lon="-0.68597">
        <ele>92</ele>
        <time>2023-11-01T21:17:18Z</time>
      </trkpt>
      <trkpt lat="46.52842" lon="-0.68449">
        <ele>88</ele>
        <time>2023-11-01T21:19:41Z</time>
      </trkpt>
      <trkpt lat="46.5272" lon="-0.68467">
        <ele>86</ele>
        <time>2023-11-01T21:22:25Z</time>
      </trkpt>
      <trkpt lat="46.52425" lon="-0.68542">
        <ele>88</ele>
        <time>2023-11-01T21:29:05Z</time>
      </trkpt>
      <trkpt lat="46.5241" lon="-0.68604">
        <ele>88</ele>
        <time>2023-11-01T21:30:05Z</time>
      </trkpt>
      <trkpt lat="46.52077" lon="-0.68838">
        <ele>87</ele>
        <time>2023-11-01T21:38:19Z</time>
      </trkpt>
      <trkpt lat="46.51521" lon="-0.69246">
        <ele>83</ele>
        <time>2023-11-01T21:52:10Z</time>
      </trkpt>
      <trkpt lat="46.51491" lon="-0.69062">
        <ele>82</ele>
        <time>2023-11-01T21:55:03Z</time>
      </trkpt>
      <trkpt lat="46.51364" lon="-0.69069">
        <ele>83</ele>
        <time>2023-11-01T21:57:53Z</time>
      </trkpt>
      <trkpt lat="46.51205" lon="-0.69022">
        <ele>87</ele>
        <time>2023-11-01T22:01:30Z</time>
      </trkpt>
      <trkpt lat="46.5081" lon="-0.69116">
        <ele>85</ele>
        <time>2023-11-01T22:10:24Z</time>
      </trkpt>
      <trkpt lat="46.50689" lon="-0.69098">
        <ele>82</ele>
        <time>2023-11-01T22:13:06Z</time>
      </trkpt>
      <trkpt lat="46.50433" lon="-0.69087">
        <ele>70</ele>
        <time>2023-11-01T22:18:48Z</time>
      </trkpt>
      <trkpt lat="46.50212" lon="-0.69185">
        <ele>70</ele>
        <time>2023-11-01T22:23:56Z</time>
      </trkpt>
      <trkpt lat="46.50073" lon="-0.68763">
        <ele>59</ele>
        <time>2023-11-01T22:31:06Z</time>
      </trkpt>
      <trkpt lat="46.50008" lon="-0.68723">
        <ele>55</ele>
        <time>2023-11-01T22:32:40Z</time>
      </trkpt>
      <trkpt lat="46.50063" lon="-0.68622">
        <ele>55</ele>
        <time>2023-11-01T22:34:38Z</time>
      </trkpt>
      <trkpt lat="46.50127" lon="-0.68669">
        <ele>59</ele>
        <time>2023-11-01T22:36:14Z</time>
      </trkpt>
      <trkpt lat="46.50194" lon="-0.68416">
        <ele>61</ele>
        <time>2023-11-01T22:40:23Z</time>
      </trkpt>
      <trkpt lat="46.50197" lon="-0.6834">
        <ele>61</ele>
        <time>2023-11-01T22:41:33Z</time>
      </trkpt>
      <trkpt lat="46.50244" lon="-0.68279">
        <ele>61</ele>
        <time>2023-11-01T22:42:57Z</time>
      </trkpt>
      <trkpt lat="46.50256" lon="-0.68019">
        <ele>61</ele>
        <time>2023-11-01T22:46:56Z</time>
      </trkpt>
      <trkpt lat="46.50174" lon="-0.6785">
        <ele>58</ele>
        <time>2023-11-01T22:50:06Z</time>
      </trkpt>
      <trkpt lat="46.50311" lon="-0.67629">
        <ele>60</ele>
        <time>2023-11-01T22:54:40Z</time>
      </trkpt>
      <trkpt lat="46.50567" lon="-0.67586">
        <ele>64</ele>
        <time>2023-11-01T23:00:23Z</time>
      </trkpt>
      <trkpt lat="46.50559" lon="-0.67413">
        <ele>60</ele>
        <time>2023-11-01T23:03:03Z</time>
      </trkpt>
      <trkpt lat="46.50527" lon="-0.67402">
        <ele>59</ele>
        <time>2023-11-01T23:03:47Z</time>
      </trkpt>
      <trkpt lat="46.50525" lon="-0.67312">
        <ele>62</ele>
        <time>2023-11-01T23:05:09Z</time>
      </trkpt>
      <trkpt lat="46.50569" lon="-0.67265">
        <ele>66</ele>
        <time>2023-11-01T23:06:22Z</time>
      </trkpt>
      <trkpt lat="46.50542" lon="-0.66998">
        <ele>65</ele>
        <time>2023-11-01T23:10:30Z</time>
      </trkpt>
      <trkpt lat="46.50562" lon="-0.66893">
        <ele>62</ele>
        <time>2023-11-01T23:12:10Z</time>
      </trkpt>
      <trkpt lat="46.50659" lon="-0.66615">
        <ele>58</ele>
        <time>2023-11-01T23:16:56Z</time>
      </trkpt>
      <trkpt lat="46.51061" lon="-0.66439">
        <ele>60</ele>
        <time>2023-11-01T23:26:17Z</time>
      </trkpt>
      <trkpt lat="46.51049" lon="-0.66322">
        <ele>57</ele>
        <time>2023-11-01T23:28:05Z</time>
      </trkpt>
      <trkpt lat="46.50974" lon="-0.66247">
        <ele>54</ele>
        <time>2023-11-01T23:30:07Z</time>
      </trkpt>
      <trkpt lat="46.50964" lon="-0.66121">
        <ele>53</ele>
        <time>2023-11-01T23:32:03Z</time>
      </trkpt>
      <trkpt lat="46.50895" lon="-0.65988">
        <ele>52</ele>
        <time>2023-11-01T23:34:36Z</time>
      </trkpt>
      <trkpt lat="46.50872" lon="-0.65883">
        <ele>55</ele>
        <time>2023-11-01T23:36:17Z</time>
      </trkpt>
      <trkpt lat="46.51004" lon="-0.65684">
        <ele>53</ele>
        <time>2023-11-01T23:40:31Z</time>
      </trkpt>
      <trkpt lat="46.51238" lon="-0.65609">
        <ele>58</ele>
        <time>2023-11-01T23:45:51Z</time>
      </trkpt>
      <trkpt lat="46.51583" lon="-0.65576">
        <ele>64</ele>
        <time>2023-11-01T23:53:32Z</time>
      </trkpt>
      <trkpt lat="46.5198" lon="-0.65681">
        <ele>70</ele>
        <time>2023-11-02T00:02:31Z</time>
      </trkpt>
      <trkpt lat="46.52037" lon="-0.6606">
        <ele>71</ele>
        <time>2023-11-02T00:08:27Z</time>
      </trkpt>
      <trkpt lat="46.52233" lon="-0.66384">
        <ele>70</ele>
        <time>2023-11-02T00:15:03Z</time>
      </trkpt>
      <trkpt lat="46.52348" lon="-0.6667">
        <ele>65</ele>
        <time>2023-11-02T00:20:07Z</time>
      </trkpt>
      <trkpt lat="46.52449" lon="-0.66861">
        <ele>71</ele>
        <time>2023-11-02T00:23:49Z</time>
      </trkpt>
      <trkpt lat="46.52454" lon="-0.66998">
        <ele>69</ele>
        <time>2023-11-02T00:25:55Z</time>
      </trkpt>
      <trkpt lat="46.52546" lon="-0.6702">
        <ele>72</ele>
        <time>2023-11-02T00:27:59Z</time>
      </trkpt>
      <trkpt lat="46.52608" lon="-0.67355">
        <ele>73</ele>
        <time>2023-11-02T00:33:18Z</time>
      </trkpt>
      <trkpt lat="46.52904" lon="-0.67579">
        <ele>78</ele>
        <time>2023-11-02T00:40:43Z</time>
      </trkpt>
      <trkpt lat="46.52854" lon="-0.68229">
        <ele>82</ele>
        <time>2023-11-02T00:50:43Z</time>
      </trkpt>
    </trkseg>
  </trk>
</gpx>